Regional Weather Roundup
Issued by NWS

Home | Current Version | Previous Version | Graphics & Text | Print | Product List | Glossary On
Versions: 1 2 3 4 5 6 7 8 9 10 11 12 13 14 15 16 17 18 19 20 21 22 23 24 25 26 27 28 29 30 31 32 33 34 35 36 37 38 39 40 41 42 43 44 45 46 47 48 49 50
000
ASUS43 KLMK 212310
RWRKY
KENTUCKY REGIONAL WEATHER ROUNDUP
NATIONAL WEATHER SERVICE LOUISVILLE KY
700 PM EDT TUE OCT 21 2014

NOTE "FAIR" INDICATES FEW OR NO CLOUDS BELOW 12,000 FEET
WITH NO SIGNIFICANT WEATHER AND/OR OBSTRUCTIONS TO VISIBILITY.

KYZ001>023-026-027-061>063-070>075-220000-
WESTERN AND SOUTH CENTRAL KENTUCKY

CITY           SKY/WX    TMP DP  RH WIND       PRES   REMARKS
PADUCAH        CLEAR     64  45  49 N8        30.07R
HENDERSON      CLEAR    N/A N/A N/A N6        30.10S
OWENSBORO      PTCLDY    60  42  51 NE7       30.11R
HOPKINSVILLE   CLEAR     63  45  50 N8        30.06R
BOWLING GREEN  PTCLDY    61  42  49 VRB7      30.08R
GLASGOW        MOCLDY    58  42  56 N5        30.08S
$$

KYZ024-025-028>034-038-045-046-053-220000-
NORTH CENTRAL KENTUCKY

CITY           SKY/WX    TMP DP  RH WIND       PRES   REMARKS
LOUISVILLE/SDF CLOUDY    57  41  55 N10       30.11R
LOUISVILLE/LOU CLOUDY    57  40  52 N6        30.11S
FORT KNOX      CLOUDY    55  41  58 N5        30.09S
$$

KYZ035>037-039>044-047>052-055>060-089>105-220000-
NORTHEAST KENTUCKY

CITY           SKY/WX    TMP DP  RH WIND       PRES   REMARKS
LEXINGTON      CLOUDY    55  41  59 N7        30.10R
COVINGTON      CLOUDY    53  40  61 N7        30.11R
FRANKFORT      CLOUDY    54  39  57 N3        30.09S
$$

KYZ054-064>069-076>088-106>120-220000-
SOUTHEAST KENTUCKY

CITY           SKY/WX    TMP DP  RH WIND       PRES   REMARKS
JACKSON        CLOUDY    50  38  63 N5        30.08R
LONDON         CLOUDY    54  40  59 N6        30.09R
SOMERSET       CLOUDY    54  37  54 N6        30.10R
MIDDLESBORO    CLOUDY    54  41  61 N8        30.08R
MONTICELLO     CLOUDY    57  43  59 CALM      30.10R
$$




USA.gov is the U.S. government's official web portal to all federal, state and local government web resources and services.